Flag for India Weather past 2 weeks in Gurdaspur, Punjab, India

Now
48 °F

Fog.


Feels Like: 46 °F
Forecast: 48 / 71 °F
Wind: 6 mph from Northwest

Location: Amritsar Airport

Current Time: Mar 6, 2015 at 8:38:47 AM

Latest Report: Mar 6, 2015 at 7:30 AM


Visibility: 2 mi

Pressure: 30.07 "Hg

Humidity: 94%

Dew point: 46 °F

Location of GurdaspurLocation

Historic Weather in Gurdaspur — Graph

°F

Gurdaspur temperature yesterday

Maximum temperature yesterday: 64 °F (at 12:00 PM)
Minimum temperature yesterday: 54 °F (at 9:00 PM)
Average temperature yesterday: 57 °F

Past Weeks' High & Low Weather Summary

 TemperatureHumidityPressure
High79 °F (Feb 23, 3:30 PM)100% (Feb 19, 7:30 PM)30.09 "Hg (Feb 19, 7:30 PM)
Low46 °F (Mar 4, 6:30 AM)36% (Feb 27, 2:30 PM)29.71 "Hg (Feb 25, 7:30 AM)
Average62 °F82%29.96 "Hg
* Reported Feb 19 6:30 AM — Mar 6 7:00 AM, Gurdaspur, Weather by CustomWeather, © 2015

Note: Actual official high and low records may vary slightly from our data, if they occured in-between our weather recording intervals... More about our weather records

Advertising

Gurdaspur weather history for previous 24 hours

 ConditionsComfort  
Time TempWeatherWind HumidityBarometerVisibility
7:00 AM
Fri, Mar 6
48 °FFog.5 mph94%30.07 "Hg2 mi
6:30 AM48 °FFog.2 mph94%30.07 "Hg2 mi
6:00 AM48 °FFog.1 mph100%30.07 "Hg2 mi
5:30 AM50 °FFog.6 mph94%30.07 "Hg2 mi
5:00 AM48 °FFog.7 mph100%30.07 "Hg2 mi
4:00 AM48 °FFog.3 mph100%30.07 "Hg2 mi
3:00 AM50 °FFog.No wind100%30.07 "Hg2 mi
2:30 AM50 °FFog.No wind100%30.07 "Hg2 mi
2:00 AM50 °FFog.No wind100%30.07 "Hg2 mi
1:30 AM52 °FFog.2 mph94%30.07 "Hg2 mi
1:00 AM52 °FFog.5 mph100%30.07 "Hg2 mi
12:30 AM50 °FFog.5 mph100%30.09 "Hg2 mi
12:00 AM54 °FFog.3 mph94%30.09 "Hg2 mi
11:30 PM
Thu, Mar 5
54 °FFog.3 mph94%30.09 "Hg2 mi
11:00 PM54 °FFog.5 mph94%30.07 "Hg2 mi
10:30 PM54 °FFog.6 mph94%30.07 "Hg2 mi
10:00 PM54 °FFog.2 mph94%30.07 "Hg2 mi
9:30 PM54 °FFog.6 mph94%30.07 "Hg2 mi
9:00 PM54 °FFog.3 mph94%30.07 "Hg2 mi
8:30 PM55 °FFog.3 mph94%30.07 "Hg2 mi
8:00 PM55 °FFog.8 mph94%30.04 "Hg2 mi
7:30 PM57 °FFog.10 mph88%30.04 "Hg2 mi
7:00 PM57 °FFog.9 mph88%30.04 "Hg2 mi
6:30 PM57 °FFog.8 mph88%30.04 "Hg2 mi
6:00 PM57 °FFog.8 mph94%30.01 "Hg2 mi
5:30 PM59 °FFog.2 mph88%30.04 "Hg2 mi
5:00 PM59 °FFog.8 mph88%30.04 "Hg2 mi
2:30 PM63 °FFog.8 mph77%30.04 "Hg2 mi
2:00 PM63 °FBroken clouds.8 mph77%30.04 "Hg2 mi
1:30 PM64 °FBroken clouds.7 mph73%30.04 "Hg2 mi
12:30 PM64 °FBroken clouds.7 mph68%30.07 "Hg2 mi
12:00 PM64 °FBroken clouds.7 mph68%30.07 "Hg2 mi
10:00 AM61 °FFog.9 mph83%30.07 "Hg2 mi
9:30 AM59 °FFog.9 mph88%30.07 "Hg2 mi
9:00 AM59 °FFog.8 mph88%30.04 "Hg2 mi
8:30 AM57 °FFog.8 mph94%30.04 "Hg2 mi
Weather by CustomWeather, © 2015

See weather overviewHow to use our weather pages